[Date Prev][Date Next][Thread Prev][Thread Next] - [Date Index][Thread Index][Author Index]
2 Line ISS Keps 2-5
- Subject: [sarex] 2 Line ISS Keps 2-5
- From: "Dave Larsen Ph.D." <doc@xxxxxxxxxxx>
- Date: Wed, 5 Feb 2003 02:53:56 -0800
ISS
1 25544U 98067A 03036.20197686 .00025446 00000-0 31018-3 0 6579
2 25544 51.6372 323.1570 0005498 115.2087 36.4561 15.60308710240414
----
Via the sarex mailing list at AMSAT.ORG courtesy of AMSAT-NA.
To unsubscribe, send "unsubscribe sarex" to Majordomo@amsat.org
AMSAT Home